| time (UTC) | temp F | wind direction | speed MPH | gust MPH | rain 1hr in | rain 24hr in | rain mn in | humidity % | barometer mb |
| 20260831111850 | 66 | 150 | 0.0 | 11.0 | 0.00 | 0.00 | 0.00 | 70 | 1009.8 |
| 20260831111350 | 66 | 151 | 0.0 | 11.0 | 0.00 | 0.00 | 0.00 | 71 | 1009.8 |
| 20260831110850 | 66 | 196 | 0.0 | 11.0 | 0.00 | 0.00 | 0.00 | 71 | 1009.5 |
| 20260831110349 | 66 | 142 | 0.0 | 11.0 | 0.00 | 0.00 | 0.00 | 71 | 1009.7 |
| 20260831105849 | 66 | 218 | 0.0 | 11.0 | 0.00 | 0.00 | 0.00 | 72 | 1009.4 |
| 20260831104834 | 66 | 337 | 0.0 | 11.0 | 0.00 | 0.00 | 0.00 | 72 | 1009.6 |
| 20260831103302 | 66 | 94 | 3.0 | 11.0 | 0.00 | 0.00 | 0.00 | 69 | 1009.9 |
| 20260831102801 | 67 | 97 | 0.0 | 11.0 | 0.00 | 0.00 | 0.00 | 70 | 1009.7 |
| 20260831102301 | 67 | 264 | 0.0 | 11.0 | 0.00 | 0.00 | 0.00 | 71 | 1009.7 |
| 20260831101801 | 66 | 229 | 1.0 | 11.0 | 0.00 | 0.00 | 0.00 | 73 | 1010.0 |
| 20260831101301 | 66 | 102 | 3.0 | 11.0 | 0.00 | 0.00 | 0.00 | 72 | 1010.0 |
| 20260831100800 | 65 | 147 | 0.0 | 11.0 | 0.00 | 0.00 | 0.00 | 74 | 1009.6 |
| 20260831100259 | 64 | 226 | 0.0 | 11.0 | 0.00 | 0.00 | 0.00 | 75 | 1009.9 |
| 20260831095758 | 64 | 113 | 0.0 | 11.0 | 0.00 | 0.00 | 0.00 | 75 | 1010.0 |
| 20260831095257 | 64 | 141 | 1.0 | 11.0 | 0.00 | 0.00 | 0.00 | 76 | 1009.8 |
| 20260831094757 | 65 | 155 | 0.0 | 11.0 | 0.00 | 0.00 | 0.00 | 74 | 1009.8 |
| 20260831094257 | 65 | 137 | 0.0 | 11.0 | 0.00 | 0.00 | 0.00 | 75 | 1010.2 |
| 20260831093757 | 64 | 144 | 1.0 | 11.0 | 0.00 | 0.00 | 0.00 | 75 | 1010.0 |
| 20260831093257 | 64 | 138 | 0.0 | 11.0 | 0.00 | 0.00 | 0.00 | 77 | 1009.9 |
| 20260831091726 | 63 | 195 | 0.0 | 11.0 | 0.00 | 0.00 | 0.00 | 77 | 1010.0 |
| 20260831091225 | 63 | 224 | 0.0 | 11.0 | 0.00 | 0.00 | 0.00 | 78 | 1009.8 |
| 20260831090210 | 63 | 204 | 0.0 | 11.0 | 0.00 | 0.00 | 0.00 | 77 | 1009.5 |
| 20260831085153 | 63 | 206 | 1.0 | 11.0 | 0.00 | 0.00 | 0.00 | 76 | 1010.0 |
| 20260831084653 | 64 | 209 | 0.0 | 11.0 | 0.00 | 0.00 | 0.00 | 76 | 1009.7 |
| 20260831084153 | 64 | 193 | 0.0 | 11.0 | 0.00 | 0.00 | 0.00 | 75 | 1010.2 |
| 20260831083652 | 64 | 198 | 0.0 | 11.0 | 0.00 | 0.00 | 0.00 | 77 | 1009.6 |
| 20260831082637 | 63 | 177 | 0.0 | 11.0 | 0.00 | 0.00 | 0.00 | 80 | 1009.7 |
| 20260831082136 | 63 | 116 | 0.0 | 11.0 | 0.00 | 0.00 | 0.00 | 81 | 1009.9 |
| 20260831081635 | 63 | 154 | 0.0 | 11.0 | 0.00 | 0.00 | 0.00 | 80 | 1009.8 |
| 20260831081135 | 62 | 147 | 0.0 | 11.0 | 0.00 | 0.00 | 0.00 | 82 | 1009.6 |
| 20260831080118 | 62 | 144 | 0.0 | 11.0 | 0.00 | 0.00 | 0.00 | 85 | 1009.8 |
| 20260831075617 | 61 | 199 | 1.0 | 11.0 | 0.00 | 0.00 | 0.00 | 86 | 1009.9 |
| 20260831075116 | 61 | 241 | 0.0 | 11.0 | 0.00 | 0.00 | 0.00 | 88 | 1009.5 |
| 20260831074616 | 61 | 231 | 0.0 | 11.0 | 0.00 | 0.00 | 0.00 | 88 | 1009.8 |
| 20260831074115 | 60 | 203 | 0.0 | 11.0 | 0.00 | 0.00 | 0.00 | 89 | 1009.4 |
| 20260831073059 | 60 | 265 | 0.0 | 11.0 | 0.00 | 0.00 | 0.00 | 91 | 1009.6 |
| 20260831072559 | 60 | 227 | 0.0 | 11.0 | 0.00 | 0.00 | 0.00 | 92 | 1009.6 |
| 20260831072059 | 59 | 221 | 0.0 | 11.0 | 0.00 | 0.00 | 0.00 | 93 | 1009.6 |
| 20260831071558 | 59 | 221 | 1.0 | 11.0 | 0.00 | 0.00 | 0.00 | 94 | 1009.8 |
| 20260831071057 | 59 | 202 | 0.0 | 11.0 | 0.00 | 0.00 | 0.00 | 96 | 1010.1 |
| 20260831070557 | 59 | 219 | 0.0 | 11.0 | 0.00 | 0.00 | 0.00 | 96 | 1009.8 |
| 20260831070056 | 59 | 206 | 0.0 | 11.0 | 0.00 | 0.00 | 0.00 | 96 | 1009.9 |
| 20260831065556 | 58 | 159 | 0.0 | 11.0 | 0.00 | 0.00 | 0.00 | 97 | 1010.1 |
| 20260831065055 | 58 | 135 | 0.0 | 11.0 | 0.00 | 0.00 | 0.00 | 97 | 1009.9 |
| 20260831064554 | 58 | 109 | 0.0 | 11.0 | 0.00 | 0.00 | 0.00 | 97 | 1010.0 |
| 20260831064053 | 58 | 107 | 0.0 | 11.0 | 0.00 | 0.00 | 0.00 | 97 | 1010.2 |
| 20260831063037 | 58 | 107 | 0.0 | 11.0 | 0.00 | 0.00 | 0.00 | 97 | 1010.0 |
| 20260831062022 | 58 | 100 | 0.0 | 11.0 | 0.00 | 0.00 | 0.00 | 97 | 1009.9 |
| 20260831061007 | 57 | 100 | 0.0 | 11.0 | 0.00 | 0.00 | 0.00 | 97 | 1009.8 |
| 20260831060505 | 57 | 100 | 0.0 | 11.0 | 0.00 | 0.00 | 0.00 | 97 | 1010.0 |
| 20260831060005 | 57 | 100 | 0.0 | 11.0 | 0.00 | 0.00 | 0.00 | 97 | 1009.9 |
| 20260831055504 | 57 | 100 | 0.0 | 11.0 | 0.00 | 0.00 | 0.00 | 97 | 1010.1 |
| 20260831055003 | 57 | 100 | 0.0 | 11.0 | 0.00 | 0.00 | 0.00 | 97 | 1009.8 |
| 20260831054502 | 57 | 100 | 0.0 | 11.0 | 0.00 | 0.00 | 0.00 | 97 | 1009.7 |
| 20260831054002 | 57 | 100 | 0.0 | 11.0 | 0.00 | 0.00 | 0.00 | 97 | 1009.8 |
| 20260831053501 | 57 | 100 | 0.0 | 11.0 | 0.00 | 0.00 | 0.00 | 97 | 1009.8 |
| 20260831053001 | 57 | 100 | 0.0 | 11.0 | 0.00 | 0.00 | 0.00 | 97 | 1009.7 |
| 20260831052501 | 57 | 100 | 0.0 | 11.0 | 0.00 | 0.00 | 0.00 | 97 | 1009.9 |
| 20260831051446 | 57 | 103 | 0.0 | 11.0 | 0.00 | 0.00 | 0.00 | 97 | 1009.9 |
| 20260831050945 | 57 | 100 | 0.0 | 11.0 | 0.00 | 0.00 | 0.00 | 97 | 1009.8 |
| 20260831050445 | 57 | 98 | 0.0 | 11.0 | 0.00 | 0.00 | 0.00 | 97 | 1010.0 |
| 20260831045945 | 57 | 98 | 0.0 | 11.0 | 0.00 | 0.00 | 0.00 | 97 | 1009.7 |
| 20260831044928 | 57 | 92 | 0.0 | 11.0 | 0.00 | 0.00 | 0.00 | 96 | 1009.8 |
| 20260831044428 | 57 | 92 | 1.0 | 11.0 | 0.00 | 0.00 | 0.00 | 96 | 1009.6 |
| 20260831043927 | 57 | 104 | 1.0 | 11.0 | 0.00 | 0.00 | 0.00 | 96 | 1009.5 |
| 20260831043427 | 56 | 112 | 0.0 | 11.0 | 0.00 | 0.00 | 0.00 | 96 | 1009.6 |
| 20260831042926 | 56 | 112 | 0.0 | 11.0 | 0.00 | 0.00 | 0.00 | 96 | 1009.8 |
| 20260831042427 | 56 | 111 | 0.0 | 11.0 | 0.00 | 0.00 | 0.00 | 96 | 1009.8 |
| 20260831041926 | 56 | 135 | 0.0 | 11.0 | 0.00 | 0.00 | 0.00 | 96 | 1009.8 |
| 20260831041426 | 56 | 135 | 0.0 | 11.0 | 0.00 | 0.00 | 0.00 | 96 | 1009.7 |
| 20260831040408 | 56 | 230 | 0.0 | 11.0 | 0.00 | 0.00 | 0.00 | 96 | 1009.5 |
| 20260831035908 | 56 | 230 | 0.0 | 11.0 | 0.00 | 0.00 | 0.00 | 96 | 1009.4 |
| 20260831034851 | 56 | 230 | 0.0 | 11.0 | 0.00 | 0.00 | 0.00 | 96 | 1009.5 |
| 20260831034352 | 56 | 230 | 0.0 | 11.0 | 0.00 | 0.00 | 0.00 | 95 | 1009.3 |
| 20260831033850 | 56 | 230 | 0.0 | 11.0 | 0.00 | 0.00 | 0.00 | 95 | 1009.4 |
| 20260831032835 | 56 | 230 | 0.0 | 11.0 | 0.00 | 0.00 | 0.00 | 95 | 1009.4 |
| 20260831032335 | 56 | 230 | 0.0 | 11.0 | 0.00 | 0.00 | 0.00 | 94 | 1009.4 |
| 20260831030805 | 57 | 230 | 0.0 | 11.0 | 0.00 | 0.00 | 0.00 | 94 | 1009.3 |
| 20260831030305 | 57 | 235 | 0.0 | 11.0 | 0.00 | 0.00 | 0.00 | 94 | 1009.4 |
| 20260831025804 | 57 | 247 | 0.0 | 11.0 | 0.00 | 0.00 | 0.00 | 94 | 1009.3 |
| 20260831025306 | 57 | 182 | 0.0 | 11.0 | 0.00 | 0.00 | 0.00 | 94 | 1009.7 |
| 20260831024805 | 57 | 204 | 0.0 | 11.0 | 0.00 | 0.00 | 0.00 | 94 | 1009.3 |
| 20260831024304 | 57 | 241 | 0.0 | 11.0 | 0.00 | 0.00 | 0.00 | 94 | 1009.2 |
| 20260831023802 | 57 | 228 | 1.0 | 11.0 | 0.00 | 0.00 | 0.00 | 94 | 1009.4 |
| 20260831023301 | 57 | 175 | 0.0 | 11.0 | 0.00 | 0.00 | 0.00 | 94 | 1009.7 |
| 20260831022802 | 57 | 199 | 1.0 | 11.0 | 0.00 | 0.00 | 0.00 | 94 | 1009.7 |
| 20260831021745 | 57 | 219 | 0.0 | 11.0 | 0.00 | 0.00 | 0.00 | 94 | 1009.3 |
| 20260831021245 | 57 | 220 | 0.0 | 11.0 | 0.00 | 0.00 | 0.00 | 95 | 1009.4 |
| 20260831020744 | 57 | 222 | 0.0 | 11.0 | 0.00 | 0.00 | 0.00 | 95 | 1009.3 |
| 20260831020244 | 57 | 116 | 0.0 | 11.0 | 0.00 | 0.00 | 0.00 | 95 | 1009.6 |
| 20260831015743 | 57 | 92 | 0.0 | 11.0 | 0.00 | 0.00 | 0.00 | 95 | 1009.6 |
| 20260831015242 | 57 | 92 | 0.0 | 11.0 | 0.00 | 0.00 | 0.00 | 95 | 1009.5 |
| 20260831014742 | 57 | 92 | 0.0 | 11.0 | 0.00 | 0.00 | 0.00 | 95 | 1009.5 |
| 20260831014241 | 57 | 92 | 0.0 | 11.0 | 0.00 | 0.00 | 0.00 | 95 | 1009.5 |
| 20260831012710 | 57 | 245 | 0.0 | 11.0 | 0.00 | 0.00 | 0.00 | 95 | 1009.4 |
| 20260831012209 | 57 | 245 | 0.0 | 11.0 | 0.00 | 0.00 | 0.00 | 95 | 1009.3 |
| 20260831011708 | 57 | 245 | 0.0 | 11.0 | 0.00 | 0.00 | 0.00 | 95 | 1009.5 |
| 20260831011207 | 57 | 245 | 0.0 | 11.0 | 0.00 | 0.00 | 0.00 | 95 | 1009.4 |
| 20260831010706 | 57 | 245 | 0.0 | 11.0 | 0.00 | 0.00 | 0.00 | 95 | 1009.2 |
| 20260831010206 | 57 | 121 | 0.0 | 11.0 | 0.00 | 0.00 | 0.00 | 95 | 1009.5 |
| 20260831005706 | 57 | 223 | 0.0 | 11.0 | 0.00 | 0.00 | 0.00 | 95 | 1009.4 |
| 20260831004651 | 58 | 223 | 0.0 | 11.0 | 0.00 | 0.00 | 0.00 | 95 | 1009.2 |
| 20260831004151 | 57 | 224 | 0.0 | 11.0 | 0.00 | 0.00 | 0.00 | 95 | 1009.2 |
| 20260831003651 | 57 | 224 | 0.0 | 11.0 | 0.00 | 0.00 | 0.00 | 95 | 1009.3 |
| 20260831003151 | 57 | 225 | 0.0 | 11.0 | 0.00 | 0.00 | 0.00 | 95 | 1009.1 |
| 20260831002134 | 58 | 211 | 0.0 | 11.0 | 0.00 | 0.00 | 0.00 | 95 | 1009.4 |
| 20260831001633 | 58 | 215 | 0.0 | 11.0 | 0.00 | 0.00 | 0.00 | 95 | 1009.1 |
| 20260831001134 | 58 | 223 | 0.0 | 11.0 | 0.00 | 0.00 | 0.00 | 95 | 1009.0 |
| 20260831000633 | 58 | 223 | 0.0 | 11.0 | 0.00 | 0.00 | 0.00 | 95 | 1009.2 |
| 20260831000132 | 58 | 230 | 0.0 | 11.0 | 0.00 | 0.00 | 0.00 | 95 | 1009.2 |
| 20260830235632 | 58 | 230 | 0.0 | 11.0 | 0.00 | 0.00 | 0.00 | 95 | 1009.4 |
| 20260830235132 | 58 | 231 | 1.0 | 11.0 | 0.00 | 0.00 | 0.00 | 95 | 1009.3 |
| 20260830233602 | 58 | 215 | 0.0 | 11.0 | 0.00 | 0.00 | 0.00 | 95 | 1009.2 |
| 20260830233102 | 58 | 215 | 0.0 | 11.0 | 0.00 | 0.00 | 0.00 | 95 | 1009.2 |
| 20260830232602 | 58 | 241 | 0.0 | 11.0 | 0.00 | 0.00 | 0.00 | 95 | 1008.8 |
| 20260830232102 | 58 | 175 | 0.0 | 11.0 | 0.00 | 0.00 | 0.00 | 95 | 1009.5 |
| 20260830231602 | 58 | 206 | 1.0 | 11.0 | 0.00 | 0.00 | 0.00 | 95 | 1009.3 |
| 20260830231102 | 58 | 165 | 0.0 | 11.0 | 0.00 | 0.00 | 0.00 | 95 | 1009.5 |
| 20260830230602 | 58 | 179 | 0.0 | 11.0 | 0.00 | 0.00 | 0.00 | 95 | 1009.3 |
| 20260830225046 | 58 | 167 | 0.0 | 11.0 | 0.00 | 0.00 | 0.00 | 95 | 1009.1 |
| 20260830224546 | 58 | 191 | 1.0 | 11.0 | 0.00 | 0.00 | 0.00 | 95 | 1009.1 |
| 20260830224045 | 58 | 191 | 0.0 | 11.0 | 0.00 | 0.00 | 0.00 | 95 | 1009.0 |
| 20260830223545 | 58 | 225 | 0.0 | 11.0 | 0.00 | 0.00 | 0.00 | 95 | 1009.0 |
| 20260830223045 | 58 | 226 | 1.0 | 11.0 | 0.00 | 0.00 | 0.00 | 95 | 1008.9 |
| 20260830222544 | 58 | 191 | 1.0 | 11.0 | 0.00 | 0.00 | 0.00 | 95 | 1009.1 |
| 20260830221528 | 58 | 259 | 0.0 | 11.0 | 0.00 | 0.00 | 0.00 | 95 | 1008.8 |
| 20260830221028 | 58 | 137 | 0.0 | 11.0 | 0.00 | 0.00 | 0.00 | 95 | 1008.9 |
| 20260830220528 | 58 | 214 | 0.0 | 11.0 | 0.00 | 0.00 | 0.00 | 95 | 1008.6 |
| 20260830220027 | 58 | 200 | 0.0 | 11.0 | 0.00 | 0.00 | 0.00 | 95 | 1008.6 |
| 20260830215526 | 58 | 217 | 1.0 | 11.0 | 0.00 | 0.00 | 0.41 | 95 | 1008.6 |
| 20260830214510 | 59 | 221 | 0.0 | 11.0 | 0.00 | 0.00 | 0.41 | 96 | 1008.7 |
| 20260830213455 | 59 | 205 | 0.0 | 11.0 | 0.00 | 0.00 | 0.41 | 96 | 1008.3 |
| 20260830212954 | 59 | 245 | 0.0 | 11.0 | 0.00 | 0.00 | 0.41 | 96 | 1008.1 |
| 20260830212453 | 59 | 243 | 0.0 | 11.0 | 0.00 | 0.00 | 0.41 | 96 | 1008.6 |
| 20260830211952 | 59 | 263 | 0.0 | 11.0 | 0.00 | 0.00 | 0.41 | 96 | 1008.3 |
| 20260830211452 | 59 | 238 | 0.0 | 11.0 | 0.00 | 0.00 | 0.41 | 96 | 1008.2 |
| 20260830210435 | 59 | 237 | 0.0 | 11.0 | 0.00 | 0.00 | 0.41 | 96 | 1008.0 |
| 20260830205418 | 59 | 253 | 0.0 | 11.0 | 0.00 | 0.00 | 0.41 | 96 | 1008.2 |
| 20260830204918 | 59 | 223 | 1.0 | 11.0 | 0.00 | 0.00 | 0.41 | 96 | 1008.0 |
| 20260830204418 | 59 | 232 | 0.0 | 11.0 | 0.00 | 0.00 | 0.41 | 97 | 1008.0 |
| 20260830203918 | 59 | 182 | 0.0 | 11.0 | 0.00 | 0.00 | 0.41 | 96 | 1008.2 |
| 20260830202902 | 59 | 203 | 1.0 | 11.0 | 0.00 | 0.00 | 0.41 | 96 | 1008.1 |
| 20260830202402 | 59 | 205 | 0.0 | 11.0 | 0.00 | 0.00 | 0.41 | 96 | 1007.8 |
| 20260830201345 | 59 | 194 | 1.0 | 11.0 | 0.00 | 0.00 | 0.41 | 96 | 1008.1 |
| 20260830200844 | 59 | 217 | 0.0 | 11.0 | 0.00 | 0.00 | 0.41 | 96 | 1007.3 |
| 20260830200344 | 59 | 229 | 0.0 | 11.0 | 0.00 | 0.00 | 0.41 | 96 | 1007.3 |
| 20260830195844 | 59 | 228 | 0.0 | 11.0 | 0.00 | 0.00 | 0.41 | 95 | 1007.4 |
| 20260830195343 | 59 | 230 | 0.0 | 11.0 | 0.00 | 0.00 | 0.41 | 95 | 1007.4 |
| 20260830194842 | 59 | 228 | 0.0 | 11.0 | 0.00 | 0.00 | 0.41 | 95 | 1007.6 |
| 20260830194342 | 59 | 220 | 0.0 | 11.0 | 0.00 | 0.00 | 0.41 | 95 | 1007.3 |
| 20260830193841 | 59 | 246 | 1.0 | 11.0 | 0.00 | 0.00 | 0.41 | 94 | 1007.1 |
| 20260830193340 | 60 | 229 | 1.0 | 11.0 | 0.00 | 0.00 | 0.41 | 95 | 1007.2 |
| 20260830192839 | 60 | 205 | 1.0 | 11.0 | 0.00 | 0.00 | 0.41 | 95 | 1007.3 |
| 20260830192338 | 60 | 248 | 0.0 | 11.0 | 0.00 | 0.00 | 0.41 | 96 | 1006.9 |
| 20260830191321 | 60 | 219 | 1.0 | 11.0 | 0.00 | 0.00 | 0.41 | 96 | 1006.6 |
| 20260830190305 | 61 | 236 | 1.0 | 11.0 | 0.00 | 0.00 | 0.41 | 95 | 1006.7 |
| 20260830185805 | 61 | 241 | 2.0 | 11.0 | 0.00 | 0.00 | 0.41 | 95 | 1006.4 |
| 20260830185306 | 61 | 262 | 2.0 | 11.0 | 0.00 | 0.00 | 0.41 | 95 | 1006.3 |
| 20260830184804 | 61 | 229 | 2.0 | 11.0 | 0.00 | 0.00 | 0.41 | 95 | 1006.5 |
| 20260830184304 | 62 | 237 | 2.0 | 11.0 | 0.00 | 0.00 | 0.41 | 96 | 1006.4 |
| 20260830183803 | 62 | 232 | 2.0 | 11.0 | 0.00 | 0.00 | 0.41 | 96 | 1006.0 |
| 20260830183303 | 62 | 188 | 2.0 | 11.0 | 0.00 | 0.00 | 0.41 | 96 | 1005.8 |
| 20260830182803 | 62 | 221 | 2.0 | 11.0 | 0.00 | 0.00 | 0.41 | 97 | 1005.5 |
| 20260830182305 | 62 | 199 | 1.0 | 11.0 | 0.00 | 0.00 | 0.41 | 97 | 1005.2 |
| 20260830181802 | 62 | 210 | 1.0 | 11.0 | 0.00 | 0.00 | 0.41 | 96 | 1005.8 |
| 20260830181302 | 62 | 196 | 1.0 | 11.0 | 0.00 | 0.00 | 0.41 | 96 | 1005.6 |
| 20260830180802 | 62 | 192 | 1.0 | 11.0 | 0.00 | 0.00 | 0.41 | 96 | 1005.7 |
| 20260830180301 | 63 | 209 | 0.0 | 11.0 | 0.00 | 0.00 | 0.41 | 96 | 1005.6 |
| 20260830175800 | 63 | 201 | 0.0 | 11.0 | 0.00 | 0.00 | 0.41 | 96 | 1005.3 |
| 20260830175300 | 63 | 224 | 0.0 | 11.0 | 0.00 | 0.00 | 0.41 | 96 | 1005.2 |
| 20260830174800 | 63 | 220 | 1.0 | 11.0 | 0.00 | 0.00 | 0.41 | 96 | 1005.1 |
| 20260830174300 | 63 | 220 | 1.0 | 11.0 | 0.00 | 0.00 | 0.41 | 96 | 1005.3 |
| 20260830173759 | 63 | 210 | 0.0 | 11.0 | 0.00 | 0.00 | 0.41 | 96 | 1005.1 |
| 20260830173259 | 63 | 155 | 0.0 | 11.0 | 0.00 | 0.00 | 0.41 | 96 | 1005.1 |
| 20260830172759 | 63 | 176 | 0.0 | 11.0 | 0.00 | 0.00 | 0.41 | 96 | 1005.1 |
| 20260830171743 | 63 | 231 | 0.0 | 11.0 | 0.00 | 0.00 | 0.41 | 96 | 1004.8 |
| 20260830170728 | 63 | 205 | 0.0 | 11.0 | 0.00 | 0.00 | 0.41 | 96 | 1005.0 |
| 20260830170227 | 64 | 205 | 0.0 | 11.0 | 0.03 | 0.00 | 0.41 | 96 | 1004.7 |
| 20260830165727 | 64 | 205 | 0.0 | 11.0 | 0.02 | 0.00 | 0.40 | 96 | 1004.6 |
| 20260830165226 | 64 | 199 | 0.0 | 11.0 | 0.03 | 0.00 | 0.40 | 96 | 1004.7 |
| 20260830164725 | 64 | 194 | 0.0 | 11.0 | 0.03 | 0.00 | 0.40 | 96 | 1004.7 |
| 20260830164224 | 64 | 205 | 0.0 | 11.0 | 0.05 | 0.00 | 0.40 | 96 | 1005.0 |
| 20260830163723 | 64 | 205 | 0.0 | 11.0 | 0.06 | 0.00 | 0.40 | 96 | 1004.7 |
| 20260830163222 | 64 | 205 | 0.0 | 11.0 | 0.10 | 0.00 | 0.40 | 96 | 1004.5 |
| 20260830162722 | 64 | 205 | 0.0 | 11.0 | 0.12 | 0.00 | 0.40 | 96 | 1004.7 |
| 20260830161705 | 64 | 221 | 0.0 | 11.0 | 0.13 | 0.00 | 0.40 | 96 | 1004.7 |
| 20260830161205 | 64 | 259 | 0.0 | 11.0 | 0.15 | 0.00 | 0.40 | 96 | 1004.3 |
| 20260830160705 | 64 | 105 | 0.0 | 11.0 | 0.16 | 0.00 | 0.40 | 96 | 1004.5 |
| 20260830160204 | 64 | 105 | 1.0 | 11.0 | 0.15 | 0.00 | 0.38 | 96 | 1004.5 |
| 20260830155703 | 64 | 105 | 0.0 | 11.0 | 0.14 | 0.00 | 0.38 | 96 | 1004.2 |
| 20260830155203 | 64 | 105 | 0.0 | 11.0 | 0.13 | 0.00 | 0.37 | 96 | 1004.6 |
| 20260830154703 | 64 | 102 | 0.0 | 11.0 | 0.13 | 0.00 | 0.36 | 96 | 1004.6 |
| 20260830154202 | 64 | 102 | 0.0 | 11.0 | 0.13 | 0.00 | 0.36 | 95 | 1004.6 |
| 20260830153702 | 64 | 88 | 0.0 | 11.0 | 0.10 | 0.00 | 0.34 | 95 | 1004.7 |
| 20260830152646 | 64 | 88 | 0.0 | 11.0 | 0.04 | 0.00 | 0.27 | 95 | 1004.5 |
| 20260830152145 | 64 | 99 | 2.0 | 11.0 | 0.03 | 0.00 | 0.27 | 94 | 1004.5 |
| 20260830151644 | 64 | 104 | 0.0 | 11.0 | 0.03 | 0.00 | 0.27 | 94 | 1004.6 |
| 20260830151144 | 65 | 104 | 0.0 | 11.0 | 0.03 | 0.00 | 0.26 | 94 | 1004.9 |
| 20260830150643 | 65 | 103 | 0.0 | 11.0 | 0.00 | 0.00 | 0.24 | 94 | 1004.3 |
| 20260830145628 | 65 | 95 | 0.0 | 11.0 | 0.00 | 0.00 | 0.23 | 94 | 1004.5 |
| 20260830144611 | 65 | 112 | 0.0 | 11.0 | 0.00 | 0.00 | 0.23 | 94 | 1004.7 |
| 20260830144111 | 65 | 105 | 0.0 | 11.0 | 0.00 | 0.00 | 0.23 | 94 | 1004.8 |
| 20260830143610 | 65 | 104 | 0.0 | 11.0 | 0.00 | 0.00 | 0.23 | 94 | 1005.0 |
| 20260830142553 | 65 | 108 | 1.0 | 11.0 | 0.00 | 0.00 | 0.23 | 94 | 1004.8 |
| 20260830142053 | 65 | 110 | 1.0 | 11.0 | 0.00 | 0.00 | 0.23 | 94 | 1004.9 |
| 20260830141553 | 64 | 108 | 2.0 | 11.0 | 0.00 | 0.00 | 0.23 | 94 | 1005.0 |
| 20260830141053 | 65 | 100 | 0.0 | 11.0 | 0.00 | 0.00 | 0.23 | 95 | 1004.6 |
| 20260830140037 | 65 | 91 | 2.0 | 11.0 | 0.00 | 0.00 | 0.23 | 95 | 1004.8 |
| 20260830135536 | 65 | 107 | 0.0 | 11.0 | 0.00 | 0.00 | 0.23 | 96 | 1004.8 |
| 20260830135035 | 64 | 108 | 1.0 | 11.0 | 0.00 | 0.00 | 0.23 | 96 | 1004.7 |
| 20260830134535 | 64 | 97 | 2.0 | 11.0 | 0.00 | 0.00 | 0.23 | 96 | 1004.9 |
| 20260830134035 | 64 | 105 | 1.0 | 11.0 | 0.00 | 0.00 | 0.23 | 96 | 1005.1 |
| 20260830133534 | 64 | 136 | 0.0 | 11.0 | 0.00 | 0.00 | 0.23 | 96 | 1004.9 |
| 20260830133034 | 64 | 90 | 1.0 | 11.0 | 0.00 | 0.00 | 0.23 | 96 | 1005.1 |
| 20260830132534 | 64 | 90 | 1.0 | 11.0 | 0.00 | 0.00 | 0.23 | 96 | 1004.7 |
| 20260830132034 | 64 | 113 | 1.0 | 11.0 | 0.00 | 0.00 | 0.23 | 96 | 1004.7 |
| 20260830131534 | 64 | 109 | 1.0 | 11.0 | 0.00 | 0.00 | 0.23 | 96 | 1004.8 |
| 20260830131033 | 64 | 115 | 3.0 | 11.0 | 0.00 | 0.00 | 0.23 | 96 | 1005.0 |
| 20260830130533 | 63 | 146 | 1.0 | 11.0 | 0.00 | 0.00 | 0.23 | 96 | 1004.8 |
| 20260830125517 | 63 | 88 | 3.0 | 11.0 | 0.00 | 0.00 | 0.23 | 96 | 1004.7 |
| 20260830125017 | 63 | 111 | 1.0 | 11.0 | 0.00 | 0.00 | 0.23 | 96 | 1005.1 |
| 20260830124517 | 63 | 91 | 1.0 | 11.0 | 0.00 | 0.00 | 0.23 | 96 | 1005.0 |
| 20260830124017 | 63 | 102 | 1.0 | 11.0 | 0.00 | 0.00 | 0.23 | 96 | 1005.0 |
| 20260830123517 | 63 | 112 | 3.0 | 11.0 | 0.00 | 0.00 | 0.23 | 96 | 1005.1 |
| 20260830123016 | 63 | 108 | 0.0 | 11.0 | 0.00 | 0.00 | 0.23 | 97 | 1005.3 |
| 20260830122516 | 63 | 96 | 3.0 | 11.0 | 0.00 | 0.00 | 0.23 | 96 | 1005.3 |
| 20260830122015 | 63 | 125 | 2.0 | 11.0 | 0.00 | 0.00 | 0.23 | 96 | 1005.4 |
| 20260830121514 | 63 | 108 | 1.0 | 11.0 | 0.00 | 0.00 | 0.23 | 97 | 1005.2 |
| 20260830115943 | 62 | 113 | 3.0 | 11.0 | 0.00 | 0.00 | 0.23 | 97 | 1005.6 |
| 20260830115443 | 62 | 107 | 2.0 | 11.0 | 0.00 | 0.00 | 0.23 | 97 | 1005.6 |
| 20260830114942 | 62 | 118 | 2.0 | 11.0 | 0.00 | 0.00 | 0.23 | 97 | 1005.2 |
| 20260830113926 | 62 | 111 | 2.0 | 11.0 | 0.00 | 0.00 | 0.23 | 97 | 1005.6 |
| 20260830113426 | 62 | 106 | 2.0 | 11.0 | 0.00 | 0.00 | 0.23 | 97 | 1005.4 |